Hourly Weather Roundup
Issued by NWS Central Illinois

Home | Current Version | Previous Version | Text Only | Print | Product List | Glossary On
Versions: 1 2 3 4 5 6 7 8 9 10 11 12 13 14 15 16 17 18 19 20 21 22 23 24 25 26 27 28 29 30 31 32 33 34 35 36 37 38 39 40 41 42 43 44 45 46 47 48 49 50
798
NZUS43 KILX 202210
HWRILX

AREA WEATHER ROUNDUP
NATIONAL WEATHER SERVICE, LINCOLN IL
500 PM CDT WED MAY 20 2015


CITY           SKY/WX    TMP DP  RH WIND       PRES   REMARKS
BLOOMINGTON    PTSUNNY   48  37  65 NE14      30.14S
CHAMPAIGN      LGT RAIN  49  43  80 N8        30.11R
DANVILLE       LGT RAIN  49  41  73 NE9       30.06F
DECATUR        LGT RAIN  47  43  86 N10       30.12S
EFFINGHAM      CLOUDY    49  42  78 N6        30.10R
FLORA          RAIN      48  45  90 N9        30.07S
GALESBURG      CLOUDY    46  40  82 N16       30.17F
JACKSONVILLE   CLOUDY    49  42  78 N12G17    30.14S
LACON          LGT RAIN  44  37  78 NE7       30.17S
LAWRENCEVILLE  LGT RAIN  52  46  80 N9        30.05S
LITCHFIELD     LGT RAIN  45  43  92 NE15      30.10S
$$


CITY           SKY/WX    TMP DP  RH WIND       PRES   REMARKS
LINCOLN        CLOUDY    47  40  74 NE13      30.13F
MACOMB         CLOUDY    48  40  75 NE14      30.19F
MATTOON        LGT RAIN  48  42  80 N12       30.08R
MT CARMEL AP   RAIN      54  46  76 N9        30.04S
OLNEY-NOBLE AP LGT RAIN  48  45  87 N6        30.07R
PARIS          DRIZZLE   49  42  76 NE9       30.08S
PEORIA         LGT RAIN  49  42  77 N5        30.16F
PONTIAC        CLOUDY    47  36  64 N14       30.16F
RANTOUL        CLOUDY    51  41  69 N9        30.11S
ROBINSON       DRIZZLE   52  45  76 N10       30.06S
SPRINGFIELD    CLOUDY    47  45  93 NE9       30.15S
TAYLORVILLE    RAIN      45  43  93 NE10      30.12S
$$

...REGIONAL REPORTS...


CITY           SKY/WX    TMP DP  RH WIND       PRES   REMARKS
CHICAGO O`HARE LGT RAIN  41  37  86 N12       30.18S WCI  34
KANKAKEE       DRIZZLE   45  37  73 N9        30.15F
MOLINE         PTSUNNY   48  38  68 NE9       30.19F
MOUNT VERNON   CLOUDY    48  43  81 N6        30.06R
PITTSFIELD     CLOUDY    47  42  80 NE8G17    30.15S
QUINCY         CLOUDY    46  40  79 NE13      30.15S
ROCKFORD       LGT RAIN  45  40  82 NE9       30.22F
$$


CITY           SKY/WX    TMP DP  RH WIND       PRES   REMARKS
BURLINGTON     CLOUDY    47  41  80 NE12      30.18F
CEDAR RAPIDS   CLOUDY    44  40  85 NE9       30.22F
DES MOINES     DRIZZLE   48  43  82 NE8       30.22F
KIRKSVILLE     CLOUDY    46  43  89 NE15      30.18S
OTTUMWA        CLOUDY    47  39  74 NE13      30.21R
ST LOUIS       CLOUDY    48  43  81 NE13G21   30.10S
$$


CITY           SKY/WX    TMP DP  RH WIND       PRES   REMARKS
TERRE HAUTE    CLOUDY    51  43  74 NE6       30.06F
EVANSVILLE     RAIN      56  51  84 NW5       30.03R
INDIANAPOLIS   CLOUDY    51  41  68 NE14      30.04F
LAFAYETTE      LGT RAIN  50  41  71 NE7       30.09F
MADISON        CLOUDY    52  32  46 SW3       30.18F
MILWAUKEE      CLOUDY    49  31  49 SE7       30.19F
$$





USA.gov is the U.S. government's official web portal to all federal, state and local government web resources and services.